| time (UTC) | temp C | wind direction | speed KPH | gust KPH | rain 1hr cm | rain 24hr cm | rain mn cm | humidity % | barometer mb |
| 20260504045745 | 10 | 146 | 1.6 | 3.2 | 0.00 | 0.00 | 0.00 | 81 | 997.7 |
| 20260504044215 | 7 | 239 | 0.0 | 0.0 | 0.00 | 0.00 | 0.00 | 95 | 997.8 |
| 20260504042645 | 8 | 202 | 0.0 | 0.0 | 0.00 | 0.00 | 0.00 | 90 | 998.1 |
| 20260504041115 | 8 | 202 | 0.0 | 0.0 | 0.00 | 0.00 | 0.00 | 90 | 998.3 |
| 20260504035545 | 8 | 202 | 0.0 | 0.0 | 0.00 | 0.00 | 0.00 | 90 | 998.3 |
| 20260504034015 | 8 | 225 | 0.0 | 0.0 | 0.00 | 0.00 | 0.00 | 89 | 998.2 |
| 20260504032445 | 9 | 176 | 0.0 | 0.0 | 0.00 | 0.00 | 0.00 | 84 | 998.4 |
| 20260504030915 | 9 | 198 | 0.0 | 0.0 | 0.00 | 0.00 | 0.00 | 82 | 998.4 |
| 20260504025345 | 10 | 180 | 0.0 | 0.0 | 0.00 | 0.00 | 0.00 | 80 | 998.4 |
| 20260504023815 | 10 | 158 | 0.0 | 0.0 | 0.00 | 0.00 | 0.00 | 77 | 998.4 |
| 20260504022315 | 11 | 170 | 0.0 | 0.0 | 0.00 | 0.00 | 0.00 | 76 | 998.2 |
| 20260504020745 | 11 | 202 | 0.0 | 0.0 | 0.00 | 0.00 | 0.00 | 72 | 997.9 |
| 20260504015215 | 12 | 202 | 0.0 | 0.0 | 0.00 | 0.00 | 0.00 | 71 | 997.5 |
| 20260504013645 | 13 | 158 | 0.0 | 0.0 | 0.00 | 0.00 | 0.00 | 67 | 997.5 |
| 20260504012115 | 13 | 158 | 0.0 | 0.0 | 0.00 | 0.00 | 0.00 | 64 | 997.6 |
| 20260504010545 | 15 | 180 | 0.0 | 0.0 | 0.00 | 0.00 | 0.00 | 59 | 997.8 |
| 20260504005015 | 16 | 158 | 0.0 | 0.0 | 0.00 | 0.00 | 0.00 | 54 | 997.5 |
| 20260504003445 | 17 | 160 | 0.0 | 0.0 | 0.00 | 0.00 | 0.00 | 50 | 997.5 |
| 20260504001915 | 19 | 177 | 0.0 | 0.0 | 0.00 | 0.00 | 0.00 | 46 | 997.6 |
| 20260504000346 | 20 | 206 | 0.0 | 0.0 | 0.00 | 0.00 | 0.00 | 42 | 998.0 |
| 20260503234845 | 21 | 201 | 0.0 | 0.0 | 0.00 | 0.00 | 0.00 | 40 | 998.1 |
| 20260503233315 | 22 | 276 | 0.0 | 0.0 | 0.00 | 0.00 | 0.00 | 39 | 998.1 |
| 20260503231815 | 22 | 55 | 1.6 | 0.0 | 0.00 | 0.00 | 0.00 | 38 | 998.0 |
| 20260503230244 | 22 | 214 | 0.0 | 0.0 | 0.00 | 0.00 | 0.00 | 38 | 998.3 |
| 20260503224744 | 23 | 180 | 0.0 | 0.0 | 0.00 | 0.00 | 0.00 | 37 | 998.5 |
| 20260503223244 | 22 | 180 | 8.0 | 8.0 | 0.00 | 0.00 | 0.00 | 39 | 998.7 |
| 20260503221714 | 22 | 236 | 1.6 | 1.6 | 0.00 | 0.00 | 0.00 | 38 | 998.9 |
| 20260503220144 | 21 | 213 | 1.6 | 0.0 | 0.00 | 0.00 | 0.00 | 37 | 999.0 |
| 20260503214614 | 21 | 195 | 4.8 | 8.0 | 0.00 | 0.00 | 0.00 | 39 | 999.1 |
| 20260503213114 | 21 | 166 | 0.0 | 0.0 | 0.00 | 0.00 | 0.00 | 38 | 999.4 |
| 20260503211544 | 21 | 241 | 8.0 | 9.7 | 0.00 | 0.00 | 0.00 | 37 | 999.6 |
| 20260503210014 | 21 | 287 | 0.0 | 0.0 | 0.00 | 0.00 | 0.00 | 37 | 999.8 |
| 20260503204444 | 22 | 273 | 0.0 | 8.0 | 0.00 | 0.00 | 0.00 | 39 | 1000.0 |
| 20260503202944 | 21 | 90 | 4.8 | 9.7 | 0.00 | 0.00 | 0.00 | 36 | 1000.2 |
| 20260503201444 | 22 | 292 | 8.0 | 11.3 | 0.00 | 0.00 | 0.00 | 35 | 1000.8 |
| 20260503195944 | 21 | 222 | 1.6 | 0.0 | 0.00 | 0.00 | 0.00 | 37 | 1000.9 |
| 20260503194414 | 22 | 196 | 0.0 | 0.0 | 0.00 | 0.00 | 0.00 | 37 | 1001.1 |
| 20260503192914 | 22 | 293 | 3.2 | 11.3 | 0.00 | 0.00 | 0.00 | 39 | 1001.2 |
| 20260503191344 | 21 | 171 | 3.2 | 4.8 | 0.00 | 0.00 | 0.00 | 38 | 1001.6 |
| 20260503185814 | 21 | 100 | 3.2 | 4.8 | 0.00 | 0.00 | 0.00 | 39 | 1001.8 |
| 20260503184244 | 21 | 257 | 4.8 | 8.0 | 0.00 | 0.00 | 0.00 | 37 | 1002.0 |
| 20260503182714 | 21 | 269 | 0.0 | 0.0 | 0.00 | 0.00 | 0.00 | 37 | 1002.2 |
| 20260503181214 | 20 | 251 | 0.0 | 0.0 | 0.00 | 0.00 | 0.00 | 39 | 1002.2 |
| 20260503175714 | 20 | 153 | 1.6 | 3.2 | 0.00 | 0.00 | 0.00 | 40 | 1002.5 |
| 20260503174213 | 20 | 179 | 0.0 | 12.9 | 0.00 | 0.00 | 0.00 | 40 | 1002.5 |
| 20260503172643 | 20 | 273 | 1.6 | 1.6 | 0.00 | 0.00 | 0.00 | 42 | 1002.9 |
| 20260503171113 | 20 | 90 | 1.6 | 3.2 | 0.00 | 0.00 | 0.00 | 42 | 1003.1 |
| 20260503150813 | 17 | 226 | 1.6 | 8.0 | 0.00 | 0.00 | 0.00 | 50 | 1004.1 |
| 20260503130713 | 16 | 157 | 0.0 | 0.0 | 0.00 | 0.00 | 0.00 | 71 | 1004.0 |
| 20260503110612 | 1 | 180 | 0.0 | 0.0 | 0.00 | 0.00 | 0.00 | 99 | 1002.8 |
| 20260503090412 | 2 | 202 | 0.0 | 0.0 | 0.00 | 0.00 | 0.00 | 99 | 1002.4 |
| 20260503080311 | 3 | 202 | 0.0 | 0.0 | 0.00 | 0.00 | 0.00 | 99 | 1002.2 |
| 20260503071641 | 3 | 180 | 0.0 | 0.0 | 0.00 | 0.00 | 0.00 | 99 | 1002.2 |
| 20260503070111 | 3 | 158 | 0.0 | 0.0 | 0.00 | 0.00 | 0.00 | 99 | 1002.0 |